Regional Weather Roundup
Issued by NWS Cleveland, OH

Home | Current Version | Previous Version | Graphics & Text | Print | Product List | Glossary On
Versions: 1 2 3 4 5 6 7 8 9 10 11 12 13 14 15 16 17 18 19 20 21 22 23 24 25 26 27 28 29 30 31 32 33 34 35 36 37 38 39 40 41 42 43 44 45 46 47 48 49 50
000
ASUS41 KCLE 300412
RWRCLE
OHIO REGIONAL WEATHER ROUNDUP
NATIONAL WEATHER SERVICE WILMINGTON, OH
1200 AM EDT TUE MAY 30 2017

NOTE: "FAIR" INDICATES FEW OR NO CLOUDS BELOW 12,000 FEET WITH NO
SIGNIFICANT WEATHER AND/OR OBSTRUCTIONS TO VISIBILITY.

OHZ001>008-015>018-024>027-034-035-043-044-300500-
   NORTHWEST OHIO

CITY           SKY/WX    TMP DP  RH WIND       PRES   REMARKS
DEFIANCE       MOCLDY    60  54  80 CALM      29.91R
FINDLAY        FAIR      61  52  72 S7        29.90R
TOLEDO EXPRESS CLOUDY    57  57 100 CALM      29.90R
TOLEDO EXEC    MOCLDY    64  55  72 SW5       29.90R
LIMA           FAIR      64  55  72 SW7       29.91R
$$

OHZ009>014-019>023-028>033-038-089-300500-
   NORTHEAST OHIO

CITY           SKY/WX    TMP DP  RH WIND       PRES   REMARKS
CLE-HOPKINS    TSTM      65  55  70 SW25G39   29.93R
CLE-LAKEFRONT  MOCLDY    71  54  54 S23G31    29.89R
CUY CO. ARPT   NOT AVBL
LORAIN-ELYRIA  FAIR      63  50  62 SW14      29.93R
ASHTABULA      FAIR      63  57  81 S6        29.91F
AKRON-CANTON   MOCLDY    65  54  67 S9        29.93F
WOOSTER        TSTM      62  54  74 W16       29.98R
MANSFIELD      LGT RAIN  60  55  83 SE13      29.95F
YOUNGSTOWN     MOCLDY    64  54  69 S10       29.93F
$$

OHZ042-051>053-060>062-070>072-077>081-300500-
  SOUTHWEST OHIO

CITY           SKY/WX    TMP DP  RH WIND       PRES   REMARKS
CINC-COVINGTON FAIR      67  56  67 S9        29.95R
CINC-LUNKEN    FAIR      63  58  83 CALM      29.94S
HAMILTON       FAIR      66  56  70 CALM      29.94R
DAYTON         FAIR      68  56  65 S10       29.93F
WRIGHT-PAT AFB FAIR      63  56  77 S3        29.92S
DAYTON GENERAL FAIR      65  53  65 S7        29.93R
WILMINGTON     FAIR      67  58  72 S8        29.94F
$$

OHZ036-037-039>041-045>050-054>059-063>069-073>076-082>088-300500-
  CENTRAL AND SOUTHEAST OHIO

CITY           SKY/WX    TMP DP  RH WIND       PRES   REMARKS
COLUMBUS       MOCLDY    68  55  63 N9        29.94R
OSU AIRPORT    LGT RAIN  64  57  78 NW9       29.96R
BOLTON FIELD   MOCLDY    66  58  75 W7        29.95S
RICKENBACK AFB FAIR      66  58  75 S5        29.93F
NEWARK         FAIR      63  58  83 CALM      29.93F
MARION         LGT RAIN  61  55  81 S16       29.94F
LANCASTER      FAIR      69  58  67 S6        29.94F
ZANESVILLE     MOCLDY    63  58  83 SE7       29.96S
NEW PHILLY     FAIR      62  60  93 SE5       29.96S
$$




USA.gov is the U.S. government's official web portal to all federal, state and local government web resources and services.